CAPE
694 759 406 1154 1022 807 245 525 739 235 9 404 538 311 377 452 137 1 0 0 0 40 49 376 385 737 748 1197 1091 1034 926 1191 1336 1338 1445 1268 1276 1400 1290 880 1365 1536 806
888 620 634 635 1100 914 278 205 1005 804 179 79 196 747 303 423 405 43 2 0 0 0 41 31 132 316 366 496 594 977 675 831 1252 1328 1362 1359 1319 1321 1371 1251 1129 1357 1242
1083 1013 1305 441 722 700 972 934 593 696 798 322 410 302 450 513 693 648 393 19 12 9 13 2 75 83 178 65 100 662 1080 829 1100 1319 1395 1363 1344 1414 1465 1203 1354 1080 1310
1476 1013 1557 1027 1043 724 1039 577 881 646 551 423 828 626 379 689 611 93 0 265 106 24 34 16 4 2 108 110 126 847 810 922 912 1039 799 970 1223 1382 1373 1473 1344 1284 1240
1803 1295 943 1275 753 1013 1068 1010 1049 864 665 308 247 553 754 550 544 430 87 296 298 90 30 43 25 2 0 54 275 283 612 754 815 741 768 649 563 1142 1267 1325 1271 1315 1205
1624 1708 1008 730 1110 1369 1126 1133 1026 758 1049 934 750 791 1342 944 624 702 506 692 608 266 119 41 82 12 0 2 125 387 363 282 226 740 892 760 557 552 1012 1110 1152 1258 986
1634 1705 2183 1558 1322 1315 1214 1585 1374 1173 909 1173 887 489 977 1271 1010 740 655 21 787 476 219 120 180 76 13 3 42 77 309 297 432 29 164 788 544 549 562 716 931 1018 1076
2306 2092 1777 1603 1524 1501 1325 1393 1452 1318 1093 1269 800 814 468 538 899 997 567 360 1046 658 440 244 172 272 53 0 3 43 219 159 211 420 177 430 558 405 596 743 807 958 986
2349 1920 1981 1528 1831 1987 1570 1459 1374 1697 1170 1138 1500 897 432 263 465 778 837 612 799 812 500 507 396 278 201 42 20 25 55 18 6 43 325 422 597 473 353 528 629 732 844
2539 2300 2240 2073 1788 2022 2066 1370 1608 1352 1371 1164 1146 1031 1044 946 563 104 893 692 770 864 674 579 516 436 454 173 137 206 232 103 39 63 87 412 523 540 370 364 563 624 695
2320 1955 2315 2475 2387 2237 2164 1986 1598 1849 1687 1500 1698 1309 958 786 435 411 134 68 836 365 754 737 675 901 621 429 287 211 341 299 155 101 120 189 467 625 600 569 590 630 707
1406 1936 2178 2243 2550 2736 2520 2248 2289 2122 1846 1796 1504 1441 1230 1084 631 452 196 178 46 115 439 753 1014 1020 629 474 534 461 652 479 330 199 137 125 153 598 815 675 782 727 861
1887 2155 2114 2445 2515 2690 2510 2310 2291 2058 2142 1857 1723 1504 1629 1274 828 447 303 382 95 239 283 647 779 935 698 836 820 746 822 682 517 281 191 142 149 147 418 673 820 748 842
2086 2734 3040 3174 2969 2823 3041 2988 2612 2433 2472 2195 2126 1995 1977 1585 756 419 202 96 153 87 211 69 156 1045 1250 1190 1108 888 1103 810 647 402 277 214 155 136 190 305 490 715 617
1999 1868 1900 2091 2658 3134 3298 3318 2998 2697 2703 2444 2369 1865 1400 1295 947 358 7 0 159 27 19 193 165 389 848 1375 1472 1468 1105 913 665 449 305 252 184 156 130 139 120 130 174
3024 2692 2690 2972 3156 3625 3596 3249 3131 2969 2519 2351 2133 1512 1422 1436 1030 419 162 149 207 100 82 312 268 0 0 39 904 1002 1204 1113 568 503 384 268 197 166 145 135 90 66 36
2759 3013 2929 3038 2940 3610 3652 3328 3220 2975 2765 2911 2270 1905 1698 1094 1167 916 505 493 377 368 282 272 245 110 108 27 101 820 1006 1253 1021 562 504 377 262 167 145 115 85 62 32
2912 3328 2667 2265 3145 3883 3395 2980 2593 2578 2316 2414 2212 2001 1643 1329 645 530 361 316 404 514 563 410 491 608 718 140 504 592 587 799 1046 845 494 421 324 257 150 94 75 51 23
2697 2492 2343 2944 3275 3581 3048 2935 2602 1664 1548 1692 2384 2470 2082 1661 1279 887 707 929 935 1283 1246 1157 1034 1096 971 923 1089 747 508 479 1312 929 481 408 345 297 195 110 49 37 18
2536 2472 2397 2931 3397 3035 2930 2494 2194 1673 1927 1977 1903 2309 2388 2307 1877 1678 1776 1688 1771 1677 1470 1263 1313 1495 1047 732 685 672 312 93 570 758 526 458 234 197 212 113 31 14 10
3185 3554 3467 3265 3194 3185 3127 2638 2235 2034 1873 1917 1883 2276 2266 2134 2297 2001 1957 1973 1712 1533 927 463 427 859 921 512 540 551 672 632 343 282 200 259 196 159 202 128 70 22 16
3462 3434 3417 3229 3106 2910 2398 1998 1790 1935 1756 1636 1872 1910 2271 2059 2056 1806 1722 1581 1513 1282 502 184 154 654 1374 1226 1340 1205 749 522 273 463 261 269 422 662 501 349 262 178 74
2981 2730 2483 2383 2419 2675 2047 1767 1418 1314 1335 1448 1707 2093 2140 1879 1911 1838 1580 1467 1255 554 475 444 295 186 432 1748 1771 1682 1068 695 495 301 33 19 219 262 947 1170 717 403 236
699 590 419 463 755 827 850 748 337 170 168 277 1091 2114 2018 2022 1940 1861 1802 1444 1183 999 913 827 682 727 756 868 1340 1941 1636 1058 751 648 443 107 175 95 304 931 804 561 287
424 347 379 405 238 249 222 93 1 0 0 0 2 11 209 1157 1409 1603 1422 1195 800 901 370 72 471 810 963 940 1343 1907 1689 1307 921 811 664 300 418 558 430 342 290 345 326
489 831 442 429 421 239 96 39 0 0 0 0 0 0 0 0 0 534 1186 1156 883 803 921 531 1107 1052 1081 1375 1450 1577 1314 1271 1187 801 557 358 270 59 14 176 288 204 205
CIN
-16 -23 -24 -14 -8 -23 -45 -26 -10 -32 -100 -29 -23 -34 -20 -9 -45 -34 0 0 0 -49 -74 -35 -23 -3 -7 0 -1 -1 -2 0 0 0 0 -1 0 -1 -1 -11 -1 0 -15
-5 -7 -11 -17 -4 -23 -51 -34 -11 -21 -45 -87 -61 -29 -36 -17 -37 -90 -70 0 0 0 -35 -60 -47 -23 -9 -3 -4 -1 -4 -3 -1 0 0 -1 -1 -2 -1 -4 -4 -2 -3
-4 -10 -8 -12 -15 -8 -9 -7 -43 -23 -17 -51 -45 -65 -47 -34 -3 -11 -14 -82 -118 -94 -64 -7 -43 -36 -13 -83 -73 -8 0 -7 -1 0 0 -1 -1 -1 0 -5 -3 -4 -3
-9 -15 -20 -16 -6 -17 -10 -16 -11 -12 -34 -36 -14 -32 -55 -38 -14 -127 -63 -22 -42 -79 -51 -77 -94 -38 -12 -30 -24 -1 -1 -3 -7 0 -13 -11 -3 -1 -1 -1 -3 -5 -3
-17 -18 -22 -16 -18 -14 -15 -19 -20 -23 -33 -48 -43 -30 -28 -27 -42 -65 -100 -41 -33 -87 -49 -50 -73 -92 0 -39 -3 -6 -3 -2 -4 -4 -14 -30 -31 -9 -2 -1 -2 -4 -6
-6 -12 -21 -31 -15 -2 -9 -10 -10 -9 -8 -15 -27 -15 -12 -30 -188 -43 -27 -31 -34 -74 -50 -73 -45 -76 0 -75 -11 -2 -8 -7 -9 -1 0 -13 -30 -35 -14 -4 -4 -2 -13
-9 -6 -3 -13 -11 -12 -6 -7 -14 -15 -19 -13 -27 -25 -17 -14 -31 -31 -65 -152 -3 -39 -45 -46 -46 -44 -97 -127 -85 -25 -1 -5 -5 -44 -22 -1 -23 -25 -33 -26 -9 -5 -5
-2 -5 -7 -8 -10 -4 -8 -15 -21 -17 -19 -14 -16 -12 -11 -15 -13 -26 -83 -87 -21 -31 -29 -47 -44 -43 -80 -3 -126 -59 -5 -19 -10 -2 -12 -1 -12 -22 -26 -21 -15 -9 -5
-13 -14 -12 -21 -7 -9 -10 -9 -13 -10 -17 -12 -8 -7 -9 -11 -9 -10 -37 -69 -35 -35 -36 -42 -67 -64 -77 -143 -176 -140 -74 -84 -69 -18 -2 -1 -3 -12 -32 -28 -28 -26 -20
-7 -6 -9 -12 -15 -12 -4 -12 -11 -14 -13 -23 -29 -18 -11 -11 -12 -42 -13 -15 -17 -16 -33 -38 -38 -47 -53 -105 -99 -55 -89 -103 -91 -47 -20 -1 0 -3 -27 -38 -24 -27 -35
-5 -5 -2 -3 -8 -19 -16 -13 -15 -16 -24 -25 -18 -20 -17 -30 -30 -19 -49 -34 -13 -14 -12 -22 -32 -20 -48 -39 -103 -76 -64 -100 -97 -83 -29 0 0 0 -2 -14 -20 -17 -9
-31 -32 -29 -30 -17 -8 -6 -10 -7 -9 -10 -7 -10 -11 -12 -5 -14 -16 -24 -47 -36 -41 -28 -7 -12 -20 -33 -90 -81 -63 -58 -81 -81 -86 -72 -39 -9 0 0 0 -1 -8 -2
-5 -28 -36 -23 -15 -11 -14 -15 -13 -19 -13 -15 -13 -15 -3 -6 -13 -9 -4 -7 -17 -85 -21 -15 -11 -13 -49 -59 -69 -25 -43 -70 -73 -93 -103 -93 -54 -40 -2 -1 0 -3 -2
-5 -26 -10 -2 -4 -4 -2 -3 -5 -12 -10 -6 -5 -6 -4 -6 -6 -7 -8 -10 -4 -29 -30 -65 -103 -9 -12 -18 -29 -23 -23 -50 -73 -104 -112 -119 -113 -75 -41 -3 -3 -1 -11
-27 -33 -37 -39 -27 -18 -8 -3 -2 -3 -2 -3 -7 -12 -10 -2 -3 -16 -75 0 -3 -42 -47 -47 -43 -63 -19 -11 -7 -15 -29 -45 -81 -126 -145 -137 -136 -123 -94 -61 -67 -49 -30
-5 -19 -32 -35 -34 -11 -6 -7 -4 -2 -3 -6 -15 -30 -23 -13 -5 -59 -68 -79 -69 -78 -91 -109 -74 0 0 -116 -16 -15 -24 -35 -94 -119 -152 -171 -170 -159 -139 -116 -110 -95 -102
-31 -26 -44 -36 -39 -5 -6 -5 -4 -6 -5 -1 -11 -26 -34 -50 -37 -21 -65 -66 -67 -70 -78 -143 -119 -156 -95 -190 -131 -5 -8 -6 -32 -99 -110 -138 -157 -179 -168 -149 -130 -103 -80
-25 -8 -46 -71 -25 -1 -8 -17 -19 -10 -5 -6 -16 -23 -49 -47 -107 -98 -115 -97 -74 -68 -71 -104 -95 -60 -13 -100 -36 -18 -42 -19 -3 -35 -90 -113 -120 -144 -155 -162 -150 -123 -96
-31 -49 -59 -13 -3 -3 -17 -16 -17 -20 -9 -9 -8 -3 -16 -38 -56 -85 -92 -56 -44 -16 -13 -17 -46 -18 -12 -3 -8 -51 -84 -78 -17 -30 -115 -147 -182 -164 -151 -163 -181 -173 -176
-33 -45 -46 -14 -3 -14 -16 -18 -10 -37 -28 -17 -13 -13 -3 -2 -16 -25 -15 -13 -7 -7 -6 -7 -10 -2 -5 -19 -17 -38 -88 -156 -69 -21 -59 -108 -157 -205 -176 -196 -221 -228 -232
-9 -5 -4 -11 -13 -12 -11 -23 -28 -22 -22 -25 -28 -19 -12 -14 -6 -8 -6 -5 -6 -14 -64 -103 -99 -30 -9 -23 -42 -56 -50 -40 -49 -77 -70 -65 -109 -150 -189 -219 -216 -265 -258
-1 0 -1 -1 -1 -1 -29 -50 -67 -41 -32 -28 -13 -15 -7 -16 -11 -19 -26 -31 -27 -49 -146 -193 -182 -81 -11 -20 -23 -31 -56 -53 -68 -52 -53 -64 -38 -70 -106 -142 -157 -181 -251
-19 -21 -25 -27 -26 -21 -59 -77 -100 -89 -67 -56 -38 -15 -5 -11 -5 -5 -16 -39 -62 -133 -166 -167 -185 -167 -122 -14 -4 -5 -42 -54 -65 -55 -60 -53 -19 -37 -22 -13 -39 -131 -184
-236 -247 -263 -213 -111 -84 -88 -127 -252 -307 -288 -231 -60 -2 -2 -4 -6 -6 -7 -15 -37 -65 -87 -103 -126 -124 -106 -92 -38 -4 -5 -22 -48 -47 -17 -35 -43 -36 -20 -16 -24 -48 -150
-302 -333 -304 -239 -302 -277 -265 -376 -97 0 0 0 -91 -474 -187 -20 -15 -14 -14 -21 -46 -57 -120 -152 -124 -90 -76 -78 -54 -4 -5 -2 -42 -55 -37 -23 -26 -33 -45 -50 -73 -79 -95
-259 -142 -261 -238 -240 -291 -336 -338 0 0 0 0 0 0 0 0 0 -90 -13 -11 -31 -81 -38 -87 -22 -59 -73 -63 -66 -32 -31 -2 -5 -20 -73 -23 -40 -69 -115 -94 -66 -152 -172
Wind_Speed
17 18 16 16 15 16 9 11 16 14 14 13 11 10 10 12 12 12 11 11 11 12 13 13 13 12 6 18 21 21 24 23 24 24 22 21 22 21 22 23 23 24 25
16 16 15 14 14 15 16 13 13 12 10 11 11 10 8 9 12 11 10 10 12 13 13 13 12 11 11 5 22 21 23 24 25 25 25 23 23 22 22 23 23 24 24
13 16 11 12 12 11 14 12 14 9 8 9 8 7 7 7 9 12 10 10 10 12 13 13 11 12 15 19 18 23 22 24 25 26 25 25 25 23 23 24 24 24 24
12 12 13 11 10 10 10 11 8 8 6 6 7 5 6 6 7 7 8 10 10 12 12 13 12 12 18 20 23 25 27 24 23 24 26 26 26 26 25 24 25 26 26
11 11 9 8 8 8 10 8 7 9 7 6 8 5 5 4 6 9 8 9 10 10 11 11 12 13 16 13 21 22 32 32 28 25 24 25 27 26 27 27 26 27 27
10 9 9 8 8 7 10 10 10 7 8 6 9 6 4 2 9 7 10 7 9 8 8 8 11 11 12 13 14 22 24 33 31 29 29 26 26 29 29 29 29 28 28
8 8 8 7 8 7 10 12 9 6 6 9 13 11 5 7 6 7 9 8 7 7 8 9 8 9 8 10 13 10 9 26 32 36 34 31 26 27 29 31 31 30 29
8 7 6 10 8 9 9 10 11 12 9 7 11 13 21 17 12 10 7 8 8 6 7 7 8 8 7 9 10 14 16 22 27 38 35 34 31 25 26 30 32 32 32
9 9 7 6 8 10 7 6 8 9 11 17 9 16 23 20 23 13 6 4 4 5 5 6 6 7 7 10 12 16 18 25 19 28 39 37 28 27 24 27 30 33 33
11 10 9 7 7 7 6 8 5 7 10 13 19 11 15 17 20 21 11 7 2 2 1 2 4 5 7 7 8 12 16 19 20 18 27 27 38 22 22 26 26 29 33
11 10 9 7 6 6 5 6 11 11 10 13 11 16 21 17 14 12 15 10 7 5 0 3 2 0 3 2 9 16 15 15 18 19 19 27 35 28 28 26 25 24 27
9 8 7 6 6 5 4 5 7 11 12 13 15 13 16 17 18 14 11 9 7 9 12 10 7 7 8 2 10 13 15 15 15 18 20 22 23 24 40 32 27 24 22
8 4 6 7 7 5 4 3 4 5 8 10 10 11 14 12 12 12 12 9 7 13 15 14 19 14 3 3 5 11 14 14 15 16 17 20 22 26 15 20 28 24 22
12 17 10 8 6 6 6 5 7 5 6 9 11 13 15 15 16 22 26 27 24 12 10 11 4 17 5 2 3 11 13 12 14 15 16 17 21 24 28 29 26 23 23
21 10 5 6 6 7 5 5 6 7 9 13 14 18 19 23 24 20 21 21 5 17 11 13 14 26 27 11 6 3 7 8 11 14 14 15 17 22 24 27 25 32 34
22 25 16 10 9 5 4 3 5 5 6 9 12 14 21 24 26 18 16 12 9 10 12 13 14 23 33 35 23 1 3 3 7 7 11 13 14 19 22 22 23 25 19
15 11 0 6 7 5 5 5 7 7 8 9 11 12 13 19 20 18 17 16 12 10 6 12 17 15 11 8 25 3 6 9 6 4 3 5 13 16 21 22 21 22 25
8 6 2 5 5 7 9 10 11 10 10 7 9 7 9 14 15 14 14 11 8 5 5 7 9 21 13 0 3 6 11 15 11 7 3 5 6 19 20 22 22 22 24
4 1 3 8 9 10 12 13 15 31 8 12 5 7 9 10 9 9 10 12 9 3 3 5 6 8 31 25 14 13 11 5 10 9 5 4 6 12 22 25 23 23 24
9 8 12 13 16 16 15 15 16 12 7 7 6 8 10 8 8 9 9 10 9 4 6 4 5 9 12 16 17 10 3 2 7 14 13 10 9 15 22 27 26 26 22
14 16 19 19 21 20 20 20 20 16 13 11 12 10 9 8 8 8 11 14 15 19 18 18 13 20 15 18 10 8 6 8 6 2 4 6 10 17 28 23 27 26 20
18 19 21 23 25 25 25 26 25 25 21 17 15 14 12 11 9 9 10 10 10 14 13 17 17 22 21 16 12 7 9 12 16 12 7 5 6 16 22 17 21 23 20
22 25 26 27 28 28 27 28 28 28 27 25 22 19 17 16 17 16 17 11 10 11 10 12 11 9 13 18 13 10 7 9 10 17 12 8 7 13 24 26 10 15 17
22 24 26 27 28 30 27 27 29 30 30 28 26 24 23 21 19 20 21 18 14 14 13 12 10 9 10 12 13 14 9 9 7 6 7 15 5 7 20 22 27 22 10
24 27 25 29 32 32 29 26 28 31 32 31 31 30 27 24 23 22 22 19 18 20 23 26 13 12 12 11 10 16 14 13 15 10 10 3 12 18 21 25 28 28 26
28 29 32 31 35 33 30 28 26 27 29 31 32 33 34 31 32 32 25 24 25 25 26 27 31 28 16 15 14 13 15 15 15 20 17 9 10 17 21 20 21 19 20
Wind_Direction
149 107 145 129 112 52 149 168 88 103 115 110 109 112 105 93 119 128 126 104 109 118 129 125 138 128 49 206 258 258 223 194 207 194 172 164 161 157 157 163 163 174 172
140 124 126 115 107 81 97 145 98 103 126 94 96 100 108 105 88 96 121 138 138 139 137 133 129 125 133 37 248 267 250 220 207 199 195 180 177 168 168 167 169 170 169
80 222 254 96 82 109 69 129 86 131 118 82 80 101 91 110 96 37 164 114 123 131 146 148 130 138 153 171 178 267 268 246 236 216 197 200 192 178 170 179 179 179 175
84 109 173 74 85 91 88 94 112 116 121 95 79 97 88 110 134 106 144 146 128 139 146 153 148 156 164 182 191 204 250 255 254 247 225 202 194 191 185 177 182 190 188
93 99 108 112 127 84 59 69 80 63 65 76 61 82 97 107 111 121 111 137 139 138 140 149 153 152 168 170 189 192 231 250 253 254 251 236 203 190 198 191 189 191 192
81 85 81 81 64 73 40 44 41 54 44 60 45 53 68 54 42 112 97 96 137 136 142 138 153 151 154 163 174 195 200 217 253 255 250 252 248 218 206 207 204 199 196
87 92 75 79 53 54 38 27 40 56 65 46 36 40 58 47 77 63 69 61 123 128 145 146 136 144 145 160 170 177 185 201 212 247 250 248 258 251 234 219 214 208 201
80 54 62 24 50 38 37 36 36 30 39 45 27 24 7 19 33 53 63 71 101 107 135 141 146 138 129 148 172 174 174 191 204 234 248 249 251 260 255 238 224 220 216
110 130 98 97 47 31 51 50 41 40 25 10 21 5 355 5 356 28 57 81 115 112 130 149 148 144 136 153 164 175 180 186 184 200 221 242 256 257 262 254 243 229 225
122 120 123 102 75 60 48 37 53 36 22 10 359 14 4 357 349 349 11 18 60 113 23 154 158 143 150 155 166 180 178 183 188 183 198 205 232 259 263 259 259 252 234
117 119 123 103 83 60 70 27 5 6 9 3 5 359 350 350 344 335 334 337 349 344 170 305 332 209 134 8 187 191 186 181 186 186 185 194 201 230 256 260 262 264 260
120 128 122 99 78 70 67 41 18 3 359 359 356 356 351 347 343 336 317 297 277 314 333 345 334 336 187 108 187 190 189 184 184 187 187 189 191 196 241 252 258 263 265
27 97 106 91 89 89 90 79 54 30 19 12 9 2 357 343 333 326 308 296 288 327 335 346 324 321 317 303 182 189 185 181 181 182 182 187 189 193 222 252 256 259 263
357 357 49 71 98 78 66 50 31 29 21 16 10 5 2 357 351 343 334 316 298 333 344 346 340 327 329 358 160 171 172 176 179 181 182 182 188 193 198 205 257 254 259
309 349 30 20 17 17 23 24 17 11 7 2 5 2 4 3 3 7 5 356 50 345 355 357 348 305 291 322 346 119 153 156 172 175 180 183 186 192 195 199 201 255 257
282 293 339 1 357 357 2 3 1 1 1 2 4 7 3 8 10 30 26 37 66 38 5 0 357 325 296 280 275 46 102 113 163 164 175 182 186 191 196 198 201 204 224
206 202 96 358 346 333 334 329 338 338 341 0 360 1 7 11 18 25 26 30 28 26 23 3 354 5 13 191 226 147 353 341 327 188 223 204 190 195 199 202 205 207 209
175 179 333 325 328 337 338 334 328 327 336 348 354 353 356 360 6 21 23 28 42 53 31 350 358 346 357 1 195 5 344 323 323 323 283 258 229 201 205 206 206 207 208
141 346 327 345 339 341 340 338 332 330 294 348 328 334 340 346 349 356 0 2 6 7 7 346 329 352 305 325 351 351 357 356 315 326 305 248 252 212 209 211 208 204 204
16 3 350 347 346 344 342 338 341 338 322 327 318 316 328 324 326 333 338 345 350 335 356 338 329 355 356 341 335 343 343 60 348 321 316 290 283 282 215 213 211 207 204
3 354 348 344 342 342 343 341 342 340 339 335 334 328 318 300 294 305 324 329 332 333 339 345 349 352 359 349 342 345 338 346 347 243 310 307 305 287 281 209 214 209 207
4 359 353 346 343 340 340 338 338 336 336 331 326 324 320 315 294 287 274 288 305 321 322 333 339 338 348 2 8 7 350 341 336 343 326 292 305 285 286 286 204 206 205
358 349 348 342 338 336 335 332 331 331 330 329 330 329 325 324 325 326 325 300 297 305 299 319 324 327 340 344 353 354 359 350 336 336 340 301 294 273 284 280 245 206 204
356 351 345 341 338 335 332 331 326 323 322 322 322 322 321 320 319 320 321 321 313 313 310 306 294 297 319 329 330 336 334 335 330 325 330 317 302 233 296 291 285 285 240
349 346 345 339 332 332 331 329 327 323 320 318 316 316 316 313 311 310 314 311 307 306 309 309 293 273 287 302 311 326 324 328 329 335 340 296 304 301 294 291 286 283 284
341 341 337 336 328 329 329 328 328 327 325 323 319 316 314 317 317 310 304 305 305 305 306 307 305 306 294 291 295 294 305 308 316 327 335 323 310 309 298 292 285 298 302